NOAA 16 DEB

Satellite information

Favourite Embed

Satellite Type and Status

DEBRISIN ORBIT

Key statistics

Satellite NOAA 16 DEB at a glance.

Uptime

9055

Days in orbit

Revolutions

≈ 14.3

Per day

Orbit

SSO

Sun Synchronous Orbit

Inclination

98.9

Latest

Satellite identification and parameters

Extended collection of information and parameters for NOAA 16 DEB.

Object identification

Identified? True

Debris? True

Object name: NOAA 16 DEB

International designator: 2000-055GV

Object number (NORAD): 41293

Object ID (CCSDS): 41293

Country: UNITED STATES OF AMERICA (US)

Current information (Y/N): Y

RCS size: SMALL

Orbital parameters

Period: 100.421 minutes

Inclination: 98.8945 deg

SMA: 7156.632 km

Apoapsis: 797.58 km

Periapsis: 759.413 km

RAAN: 278.2967 deg

Eccentricy: 0.0026665

Argument of periapsis: 128.7159 deg

Mean anomaly: 231.6414 deg

Mean motion: 14.33969026 rev/day

Mean motion (dot): 0.00007709 rev/day2

B* drag term: 0.0027656 1/REarth

Two-line elements (TLE)

Creation date: July 6, 2025, 4:10 a.m.

Reference frame: TEME

Reference center: EARTH

Epoch: July 5, 2025, 4:53 p.m. UTC

TLE line 0: 0 NOAA 16 DEB

TLE line 1: 1 41293U 00055GV 25186.70403637 .00007709 00000-0 27656-2 0 9992

TLE line 2: 2 41293 98.8945 278.2967 0026665 128.7159 231.6414 14.33969026490987

Live tracking on map

Real-time ground track for satellite NOAA 16 DEB.

In-orbit conjunctions

A list of the most updated potential collisions computed for object NOAA 16 DEB.

Target Orbit TCA Probability of collision Miss distance Type
FENGYUN 1C DEB SSO 2025-05-13 07:41:22 0.0001108026 287.0 (m) DEBRIS
METEOR 2-8 DEB LEO 2024-07-20 09:38:23 0.0001035099 56.0 (m) DEBRIS

Associated space launch

The NOAA K, L and M POES satellites begin the fifth generation of improved environmental monitoring in support of NOAA missions. The instrument payload has significant improvements and additions/deletions. The instrument changes have effected the spacecraft subsystems and data formats.

NOAA 16 DEB was lifted into orbit during the mission ‘Titan II SLV | NOAA 16’, on board a Titan II SLV space rocket.

The launch took place on Sept. 21, 2000, 10:22 a.m. from Space Launch Complex 4W.

For more information about the launch, click the button.

Launch to space Titan II SLV | NOAA 16
Titan II SLV | NOAA 16

Agency: N/A

Status: Launch Successful

Launch date: Sept. 21, 2000, 10:22 a.m. UTC

Rocket: Titan II SLV

Launch pad: Space Launch Complex 4W

Location: Vandenberg SFB, CA, USA

...

Latest news about this satellite

There are no fresh news available about this satellite. Check back as we update our databases every day.


Newsletter sign-up

Weekly statistics, charts and insights to help you stay on top of the space industry.